www.pogodaiklimat.ru

Погода и климат >> Архив погоды >> Россия >> Краснодарский край >> Туапсе


АРХИВ ПОГОДЫ в Туапсе

Время (UTC), дата Ветер
(напр.,м/с)
 
Видим.   Явления Облачность Т
(С)
Тd
(С)
f
(%)
Тe
(С)
Тes
(С)
Комфортность P
(гПа)
Po
(гПа)
Тmin
(С)
Tmax
(С)
R
(мм)
R24
(мм)
S
(см)
12 15.04 Ю 3
{16}
20 км ясно +16.1 +6.7 54 +16 +24 тепло 1022.0 1014.7
15 15.04 Ю 1 20 км 1/1 1000 м
[Cu med, cong]
+14.8 +8.7 67 +15 +16 тепло 1022.4 1015.0 +19.7
18 15.04 ЮЗ 1 10 км ясно +13.1 +2.9 50 +14 +14 тепло 1023.7 1016.2
21 15.04 СВ 2 10 км 3/3 1000 м
[Sc]
+11.7 -5.0 31 +11 +11 по сезону 1024.6 1017.1
00 16.04 СВ 2 10 км ясно +9.5 -1.9 45 +8 +8 по сезону 1024.5 1016.9
03 16.04 СВ 3 20 км 4/4 1000 м
[Sc]
+7.7 -0.6 56 +5 +5 прохладно 1025.1 1017.5 +7.7
06 16.04 В 2 20 км 4/3 1000 м
[Cu med, cong Ci fib]
+14.0 +2.9 47 +14 +19 тепло 1026.0 1018.6
09 16.04 Ю 2 20 км 10/1 1000 м
[Cu med, cong Ci fib]
+15.0 +7.6 61 +15 +26 опасность
простуды
1025.5 1018.0
12 16.04 ЮЗ 3 20 км 1/1 1000 м
[Cu med, cong]
+18.8 +7.8 49 +19 +27 тепло 1024.4 1017.1
15 16.04 ЮЗ 2 20 км ясно +15.7 +7.4 58 +16 +17 тепло 1022.5 1015.1 +19.3
18 16.04 С 2 10 км ясно +11.0 +7.2 77 +10 +10 по сезону 1022.5 1015.0
21 16.04 СВ 1 10 км ясно +10.6 +6.3 75 +10 +10 по сезону 1021.5 1014.0
00 17.04 СВ 1 10 км ясно +8.9 +5.4 79 +8 +8 по сезону 1021.6 1014.0
03 17.04 СВ 2 20 км 9/0
[Ac trans Ci fib]
+8.3 +0.4 57 +7 +7 прохладно 1021.5 1013.9 +7.9
06 17.04 ЮЗ 1 20 км 9/3 1000 м
[Sc Ac trans Ci fib]
+14.1 +4.4 52 +15 +18 тепло 1022.3 1014.9
09 17.04 ЮЗ 3 20 км 8/3 1000 м
[Cu med, cong Ac trans Ci fib]
+17.7 +7.9 53 +18 +24 тепло 1022.0 1014.7
12 17.04 ЮЗ 3 20 км 10/4 1000 м
[Cu Sc Ac trans Ci fib]
+17.9 +8.9 56 +18 +21 тепло 1021.4 1014.1
15 17.04 З 1 20 км 10/6 1000 м
[Cu Sc Ac trans Ci fib]
+14.0 +7.9 67 +14 +15 тепло 1020.6 1013.2 +19.5
18 17.04 штиль 0 10 км 10/8 1000 м
[Cu Sc Ac As]
+12.1 +7.5 73 +12 +12 тепло 1020.4 1012.9
21 17.04 штиль 0 10 км 3/3 1000 м
[Cu med, cong]
+11.9 +8.6 80 +11 +11 по сезону 1020.9 1013.5
00 18.04 СВ 1 10 км ясно +11.5 +8.1 80 +11 +11 тепло 1021.0 1013.6
03 18.04 СВ 2 20 км 10/4 1000 м
[Sc Ci sp]
+10.7 +4.8 67 +10 +10 по сезону 1021.8 1014.3 +10.6
06 18.04 ЮЗ 1 20 км 10/3 1000 м
[Cu med, cong Ci]
+14.9 +7.9 63 +16 +21 тепло 1022.8 1015.4
09 18.04 ЮЗ 2 20 км 10/4 1000 м
[Cu Sc Ci]
+16.4 +6.3 51 +17 +24 тепло 1022.1 1014.8
12 18.04 ЮЗ 1 20 км 10/3 1000 м
[Cu Sc Ci]
+18.0 +4.5 41 +19 +26 тепло 1021.3 1014.0
15 18.04 З 1 20 км 10/3 1000 м
[Cu Sc Ci]
+17.7 +4.3 41 +19 +20 тепло 1020.2 1012.9 +19.3
18 18.04 СВ 1 10 км 4/3 1000 м
[Cu med, cong Ci fib]
+12.7 +5.1 60 +13 +13 тепло 1020.4 1013.0
21 18.04 С 1 10 км 3/0
[Ci fib]
+11.5 +4.9 64 +12 +12 тепло 1019.6 1012.1
00 19.04 СВ 1 10 км 6/0
[Ci]
+10.7 +3.8 62 +11 +11 тепло 1018.9 1011.5
03 19.04 З 2 20 км 8/4 1000 м
[Cu Sc Ci]
+10.2 +4.0 65 +9 +9 по сезону 1017.7 1010.2 +9.8
06 19.04 Ю 3 10 км слабый ливневой дождь 10/10 600 м
[Cb cap]
+12.5 +10.2 86 +11 +11 по сезону 1018.1 1010.7
09 19.04 ЮВ 6-13
{14}
20 км {ливн. осадки} 10/8 1000 м
[Cb cap Ac trans Ci fib]
+13.4 +9.7 78 +11 +12 по сезону 1016.4 1009.0
12 19.04 Ю 4
{16}
10 км слабый ливневой дождь 10/10 600 м
[Cb cap]
+13.0 +9.9 81 +11 +11 по сезону 1014.6 1007.2
15 19.04 Ю 4-11
{16}
10 км в посл. час ливневой дождь 10/8 1000 м
[Cb cap Ac trans Ci fib]
+12.8 +10.1 84 +11 +11 по сезону 1013.1 1005.7 +13.8 2
18 19.04 Ю 3
{12}
4000 м слабый ливневой дождь 10/10 600 м
[Cb cap]
+12.6 +10.4 86 +11 +11 по сезону 1012.2 1004.8
21 19.04 Ю 2
{10}
4000 м слабый ливневой дождь 10/10 600 м
[Cb cap]
+11.9 +10.0 88 +11 +11 по сезону 1011.1 1003.7
00 20.04 Ю 3 10 км {ливн. осадки} 10/8 1000 м
[Cb cap Ac trans Ci fib]
+11.9 +9.6 86 +10 +10 по сезону 1009.2 1001.8
03 20.04 ЮЗ 1
{13}
10 км в посл. час гроза {ливн. осадки} 10/10 1000 м
[Cb cap]
+10.9 +9.3 90 +11 +11 по сезону 1007.9 1000.5 +10.9 6
06 20.04 ЮЗ 4 20 км {гроза, ливн. осадки} 10/8 600 м
[Cb cap Ac As]
+12.5 +10.3 86 +11 +11 по сезону 1008.0 1000.6 +10.9
09 20.04 ЮЗ 4 20 км 9/5 1000 м
[Cb cap Ci sp]
+15.5 +7.9 61 +15 +19 тепло 1009.2 1001.9
12 20.04 ЮЗ 4 20 км 10/8 1000 м
[Cb cap Ac trans Ci sp]
+13.6 +7.1 65 +12 +13 по сезону 1010.4 1003.1
15 20.04 С 1 20 км в посл. час ливневой дождь 10/8 600 м
[Cb cap Ac trans Ci sp]
+12.6 +6.2 65 +13 +13 по сезону 1011.0 1003.6 +16.9 0.0
18 20.04 СВ 1 10 км {ливн. осадки} 8/6 600 м
[Cb cap Ci sp]
+10.7 +6.5 75 +10 +10 по сезону 1012.7 1005.3
21 20.04 С 1 10 км 9/6 1000 м
[Cu Sc Ci sp]
+10.3 +5.9 74 +10 +10 по сезону 1013.2 1005.8
00 21.04 С 1 10 км 8/4 1000 м
[Cu Sc Ci sp]
+8.4 +5.1 80 +8 +8 по сезону 1012.5 1005.0
03 21.04 С 1 20 км 8/4 600 м
[Cb cap Cc]
+9.7 +5.0 73 +9 +9 по сезону 1013.2 1005.7 +8.4 0.0
06 21.04 С 3 20 км 8/6 1000 м
[Cb cap Ci]
+14.1 +5.3 55 +13 +16 по сезону 1014.0 1006.6
09 21.04 С 4-10
{11}
20 км 4/3 1000 м
[Cu med, cong Ci fib]
+16.5 +4.2 44 +16 +23 тепло 1014.1 1006.8
12 21.04 ЮВ 3
{10}
20 км 4/4 1000 м
[Cu med, cong]
+15.5 +7.7 60 +15 +21 тепло 1013.9 1006.6
15 21.04 ЮВ 3 20 км 8/3 1000 м
[Cu med, cong Ci]
+13.9 +8.1 68 +13 +14 по сезону 1014.7 1007.3 +19.3
18 21.04 В 1 10 км 4/0
[Ci fib]
+12.3 +7.4 72 +12 +12 по сезону 1015.7 1008.3
21 21.04 В 2 10 км 4/0
[Ci fib]
+11.8 +7.2 73 +11 +11 по сезону 1015.8 1008.4
00 22.04 ЮВ 4 10 км 10/3 1000 м
[Sc Ac trans Ci fib]
+12.3 +6.9 70 +10 +10 по сезону 1015.5 1008.1
03 22.04 ЮВ 7-13
{15}
10 км в посл. час ливневой дождь 9/8 1000 м
[Cb cap Ci fib]
+12.5 +7.8 73 +10 +10 по сезону 1014.8 1007.4 +11.7
06 22.04 ЮВ 6-12
{14}
20 км {ливн. осадки} 9/6 1000 м
[Cb cap Ci fib]
+13.1 +8.0 71 +11 +12 по сезону 1015.5 1008.1
09 22.04 ЮЗ 4
{12}
20 км 8/4 1000 м
[Cu Sc Ci fib]
+16.6 +10.0 65 +16 +22 тепло 1015.5 1008.2

 

Местоположение метеостанции Туапсе (Краснодарский край, Россия): широта 44.10 долгота 39.07 высота над уровнем моря 62 м.

В архиве по умолчанию представлена погода в Туапсе за последнюю неделю. Архивные данные за месяц целиком и за предыдущие месяцы, начиная с января 2011 года, Вы можете получить, выбрав интересующий диапазон дат из раскрывающегося списка и нажав кнопку "Ввод!".


*Определитесь, кто Вы:
робот инопланетянин человек

Внимание! Время в таблицах - всемирное. Для получения местного времени необходимо прибавить поправку, которая в Туапсе равна 3 ч.

Смотрите также архив погоды в соседних городах и на ближайших метеорологических станциях:

Погода в Магри (Краснодарский край, Россия) (11 км)
Погода в Горном (Краснодарский край, Россия) (26 км)
Погода в Лазаревском (Краснодарский край, Россия) (30 км)
Погода в Джубге (Краснодарский край, Россия) (38 км)
Погода в Кичмае (Краснодарский край, Россия) (46 км)
Погода в Солох Ауле (Краснодарский край, Россия) (56 км)
Погода в Горячем Ключе (Краснодарский край, Россия) (59 км)
Погода в Сочи (Краснодарский край, Россия) (81 км)
Погода в Гузерипле (Адыгея, Россия) (85 км)
Погода в Шунтуке (Адыгея, Россия) (93 км)

Пояснения к столбцам:

Ветер - указаны скорость ветра в м/с - средняя за 10 мин, порывы в срок и между сроками (в фигурных скобках) и направление, откуда дует ветер: С - северный, СВ - северо-восточный, В - восточный, ЮВ - юго-восточный, Ю - южный, ЮЗ - юго-западный, З - западный, СЗ - северо-западный.
Видимость - горизонтальная дальность видимости в метрах или километрах. При видимости от 1 до 10 км при отсутствии осадков обычно наблюдается дымка, при ухудшении видимости до 1 км и менее - туман. В сухую погоду видимость может ухудшаться дымом, пылью или мглою.
Явления - указаны атмосферные явления, наблюдавшиеся в срок или в последний час перед сроком; фигурными скобками обозначены явления, наблюдавшиеся между сроками (за 1-3 часа до срока); квадратными скобками обозначены град или гололедные отложения с указанием их диаметра в мм.
Облачность - указаны через наклонную черту общая и нижняя облачность в баллах и высота нижней границы облаков в метрах; квадратными скобками обозначены формы облаков: Ci - перистые, Cs - перисто-слоистые, Cc - перисто-кучевые, Ac - высококучевые, As - высокослоистые, Sc - слоисто-кучевые, Ns - слоисто-дождевые, Cu - кучевые, Cb - кучево-дождевые. Подробнее классификацию облаков см. в Атласе облаков (PDF).
T - Температура воздуха - температура, измеренная на высоте 2 м над землей.
Td - Температура точки росы - температура, при понижении до которой содержащийся в воздухе водяной пар достигнет насыщения.
f - Относительная влажность воздуха - влажноcть воздуха, измеренная на высоте 2 м над землей.
Te - Эффективная температура - температура, которую ощущает одетый по сезону человек в тени. Характеристика душности погоды. При расчете учитывается влияние влажности воздуха и скорости ветра на теплоощущения человека.
Tes - Эффективная температура на солнце - температура, которую ощущает человек, с поправкой на солнечный нагрев. Характеристика знойности погоды. Зависит от высоты солнца над горизонтом, облачности и скорости ветра. Ночью, в пасмурную погоду, а также при ветре 12 м/с и более поправка равна нулю.
P - Атмосферное давление - приведенное к уровню моря атмосферное давление.
Po - Атмосферное давление - измеренное на уровне метеостанции атмосферное давление.
Tmin - Минимальная температура - минимум температуры воздуха на высоте 2 м над землей.
Tmax - Максимальная температура - максимум температуры воздуха на высоте 2 м над землей.
R - Количество осадков - Количество выпавших осадков за период времени, мм. При наведении курсора мыши на число - период времени, за который выпало указанное количество осадков.
R24 - Количество осадков - Количество выпавших осадков за 24 часа, мм.
S - Снежный покров - Высота снежного покрова, см. При наведении курсора мыши на число - состояние снежного покрова и степень покрытия местности в баллах.